THOR ABLESTAR DEB, 417

Orbit data source: Space-Track

THOR ABLESTAR DEB, 417 is space debris in LEO originally from a launch on Thu, 29 Jun 1961 UTC launched from the Air Force Eastern Test Range (AFETR). Debris objects in space refer to the collection of defunct objects orbiting the Earth. Examples of debris include non-operational satellites, rocket bodies, and fragments generated from explosions, collisions, or faulty payload assembly.

Loading next visibility...
Identifier
417, 1961-015ES
Orbit
LEO
Last TLE update
17 hours ago
Origin
Manufacturer
Unknown
Mission
Spacecraft
Bus & Motor
Unknown
Mass
Unknown
Launch date (UTC)
1961-06-29 (64 years ago)
Launch vehicle
Unknown
Launch site
Air Force Eastern Test Range (AFETR)
Object type
Payload
Rocket body
Debris
Shape & HBR
Unknown
Radar Cross Section
Small (<0.1 m²)

Expand to show TLE details & history

TLE from 17 hours ago
0 THOR ABLESTAR DEB
1 00417U 61015ES  25128.51531674  .00000748  00000-0  38119-3 0  9999
2 00417  66.7439 171.0064 0066135  27.9778 332.4844 14.20094415280029
Epoch: 2025-05-08T12:22Z
Definitive object data (Epoch: 2025-05-08T12:22:03.366Z)
Latitude
-0.00008°
Longitude
118.90764°
Altitude
784.948 km
Speed
7.484 km/s
True Right ascension
11h 24m 01s
True Declination
0° 00' 00"
Sunlit
Object was in full shadow at TLE epoch
Visualization TLE readout
Latitude
43.7959°
Longitude
141.27161°
Altitude
786.284 km
Speed
7.488 km/s
Apparent Right ascension
08h 19m 03s
Apparent Declination
40° 09' 44"
Sunlit
Object is in daylight
Visualization observer readout
Local Sidereal Time
13:38:25
Azimuth
298.485° NW
Elevation
31.147°
Doppler factor
1
Orbital elements
Apogee altitude
871.038 km
Perigee altitude
775.783 km
Semi-major axis
7,201.548 km
Eccentricity
0.0066135
Inclination
66.7439°
RAAN
171.0064°
Arg. of periapsis
27.9778°
True anomaly
332.1317°
Mean anomaly
332.4844°
Eccentric anomaly
332.30831°
Mean motion
3.55144 °/min
BSTAR
0.00038119
Orbital period
101.37 mins
Loading maneuver chart data...
Loading SW <> Apogee altitude chart data...

THOR ABLESTAR DEB Visibility forecast

Observer location: undefined°, undefined°

Span
Click to sort rows by Start time (UTC) header in descending order
Start Az.
Max El. time (UTC)
Max El. Az.
Max El.
End time (UTC)
End Az.
5 mins2025-05-09 05:29:44.465Z298.022° NW2025-05-09 05:29:44.465Z298.022° NW27.315°2025-05-09 05:34:44.465Z10.043° NNE
8 mins2025-05-09 12:34:44.465Z1.312° NNE2025-05-09 12:37:44.465Z47.373° ENE27.528°2025-05-09 12:42:44.465Z112.44° ESE
8 mins2025-05-09 14:18:44.465Z306.761° NW2025-05-09 14:21:44.465Z260.361° W32.378°2025-05-09 14:26:44.465Z183.937° SSW
7 mins2025-05-10 03:22:44.465Z159.053° S2025-05-10 03:25:44.465Z109.915° ESE27.372°2025-05-10 03:29:44.465Z52.807° ENE
7 mins2025-05-10 05:06:44.465Z253.408° W2025-05-10 05:09:44.465Z305.285° NW29.899°2025-05-10 05:13:44.465Z7.726° NNE
|